,,,PA_Meas_PMT16A,,PR_Meas_QMR101_102,,RH_Meas_QMH101,,SR_Meas_QMS101,,TA_Meas_QMH101,,GenWind,,GenWind,
date,time,status,PA,status,PR,status,RH,status,SR,status,TA,status,DirAvg,status,SpdAvg,
2011-01-06, 00:00:04,VALID,1002.64,VALID,0,VALID,104,VALID,0,VALID,25.6506,VALID,44,VALID,0.485156,
2011-01-06, 00:01:04,VALID,1002.62,VALID,0,VALID,104,VALID,0,VALID,25.6486,VALID,44,VALID,0.531641,
2011-01-06, 00:02:04,VALID,1002.61,VALID,0,VALID,104,VALID,0,VALID,25.6506,VALID,43,VALID,0.612109,
2011-01-06, 00:03:04,VALID,1002.59,VALID,0,VALID,104,VALID,0,VALID,25.5921,VALID,59,VALID,0.541406,
2011-01-06, 00:04:04,VALID,1002.58,VALID,0,VALID,104,VALID,0,VALID,25.5902,VALID,31,VALID,0.959375,
2011-01-06, 00:05:04,VALID,1002.55,VALID,0,VALID,104,VALID,0,VALID,25.6311,VALID,28,VALID,0.703516,
2011-01-06, 00:06:04,VALID,1002.52,VALID,0,VALID,104,VALID,0,VALID,25.6097,VALID,26,VALID,1.33828,
2011-01-06, 00:07:04,VALID,1002.54,VALID,0,VALID,104,VALID,0,VALID,25.6292,VALID,42,VALID,0.979688,
2011-01-06, 00:08:04,VALID,1002.51,VALID,0,VALID,103.745,VALID,0,VALID,25.6292,VALID,25,VALID,2.15859,
2011-01-06, 00:09:04,VALID,1002.5,VALID,0,VALID,102.914,VALID,0,VALID,25.7285,VALID,14,VALID,1.59258,
2011-01-06, 00:10:04,VALID,1002.46,VALID,0,VALID,101.884,VALID,0,VALID,25.8434,VALID,41,VALID,1.25898,
2011-01-06, 00:11:04,VALID,1002.44,VALID,0,VALID,101.037,VALID,0,VALID,25.9018,VALID,18,VALID,2.23984,
2011-01-06, 00:12:04,VALID,1002.4,VALID,0,VALID,100.533,VALID,0,VALID,26.0012,VALID,35,VALID,1.44141,
2011-01-06, 00:13:04,VALID,1002.41,VALID,0,VALID,99.946,VALID,0,VALID,26.0187,VALID,31,VALID,1.21289,
2011-01-06, 00:14:04,VALID,1002.38,VALID,0,VALID,99.7018,VALID,0,VALID,26.0791,VALID,22,VALID,1.09453,
2011-01-06, 00:15:04,VALID,1002.38,VALID,0,VALID,99.4043,VALID,0,VALID,26.0966,VALID,8,VALID,1.06211,
2011-01-06, 00:16:04,VALID,1002.36,VALID,0,VALID,99.3051,VALID,0,VALID,26.0791,VALID,23,VALID,1.36641,
2011-01-06, 00:17:04,VALID,1002.36,VALID,0,VALID,99.0915,VALID,0,VALID,26.0381,VALID,21,VALID,1.42148,
2011-01-06, 00:18:04,VALID,1002.33,VALID,0,VALID,99.7705,VALID,0,VALID,26.0187,VALID,35,VALID,1.45938,
2011-01-06, 00:19:04,VALID,1002.3,VALID,0,VALID,100.266,VALID,0,VALID,26.0381,VALID,35,VALID,1.81094,
2011-01-06, 00:20:04,VALID,1002.27,VALID,0,VALID,99.9994,VALID,0,VALID,26.0791,VALID,4,VALID,1.11953,
2011-01-06, 00:21:04,VALID,1002.27,VALID,0,VALID,99.8315,VALID,0,VALID,26.12,VALID,24,VALID,1.77227,
2011-01-06, 00:22:04,VALID,1002.23,VALID,0,VALID,99.1602,VALID,0,VALID,26.1355,VALID,33,VALID,0.634375,
2011-01-06, 00:23:04,VALID,1002.24,VALID,0,VALID,99.4882,VALID,0,VALID,26.118,VALID,29,VALID,0.667188,
2011-01-06, 00:24:04,VALID,1002.21,VALID,0,VALID,99.1754,VALID,0,VALID,26.157,VALID,7,VALID,1.76367,
2011-01-06, 00:25:04,VALID,1002.23,VALID,0,VALID,98.5041,VALID,0,VALID,26.2134,VALID,37,VALID,0.794531,
2011-01-06, 00:26:04,VALID,1002.22,VALID,0,VALID,98.1532,VALID,0.100563,VALID,26.2134,VALID,57,VALID,0.695313,
2011-01-06, 00:27:04,VALID,1002.21,VALID,0,VALID,98.1761,VALID,0,VALID,26.194,VALID,19,VALID,0.7125,
2011-01-06, 00:28:04,VALID,1002.22,VALID,0,VALID,98.199,VALID,0,VALID,26.153,VALID,33,VALID,1.08828,
2011-01-06, 00:29:04,VALID,1002.22,VALID,0,VALID,97.2759,VALID,0,VALID,26.1355,VALID,26,VALID,1.02539,
2011-01-06, 00:30:04,VALID,1002.19,VALID,0,VALID,97.4284,VALID,0,VALID,26.116,VALID,13,VALID,1.05117,
2011-01-06, 00:31:04,VALID,1002.18,VALID,0,VALID,95.9332,VALID,0,VALID,26.116,VALID,357,VALID,0.989453,
2011-01-06, 00:32:04,VALID,1002.12,VALID,0,VALID,94.8804,VALID,0.100563,VALID,26.157,VALID,1,VALID,1.07578,
2011-01-06, 00:33:04,VALID,1002.14,VALID,0,VALID,93.8734,VALID,0.100563,VALID,26.2134,VALID,41,VALID,0.781641,
2011-01-06, 00:34:04,VALID,1002.14,VALID,0,VALID,94.682,VALID,0,VALID,26.1745,VALID,29,VALID,1.01914,
2011-01-06, 00:35:04,VALID,1002.1,VALID,0,VALID,93.3699,VALID,0,VALID,26.155,VALID,37,VALID,1.19922,
2011-01-06, 00:36:04,VALID,1002.11,VALID,0,VALID,94.5676,VALID,0,VALID,26.155,VALID,30,VALID,0.658984,
2011-01-06, 00:37:04,VALID,1002.12,VALID,0,VALID,94.2777,VALID,0,VALID,26.0771,VALID,25,VALID,1.32617,
2011-01-06, 00:38:04,VALID,1002.15,VALID,0,VALID,92.0577,VALID,0,VALID,26.116,VALID,18,VALID,1.18867,
2011-01-06, 00:39:04,VALID,1002.16,VALID,0,VALID,91.6686,VALID,0,VALID,26.1725,VALID,21,VALID,1.11133,
2011-01-06, 00:40:04,VALID,1002.15,VALID,0,VALID,91.5008,VALID,0,VALID,26.2329,VALID,28,VALID,1.19922,
2011-01-06, 00:41:04,VALID,1002.18,VALID,0,VALID,91.2185,VALID,0,VALID,26.2719,VALID,21,VALID,0.878125,
2011-01-06, 00:42:04,VALID,1002.17,VALID,0,VALID,89.5707,VALID,0.100563,VALID,26.2329,VALID,13,VALID,1.51836,
2011-01-06, 00:43:04,VALID,1002.15,VALID,0,VALID,90.5701,VALID,0,VALID,26.2913,VALID,86,VALID,0.354688,
2011-01-06, 00:44:04,VALID,1002.14,VALID,0,VALID,90.181,VALID,0.100563,VALID,26.2309,VALID,21,VALID,0.657031,
2011-01-06, 00:45:04,VALID,1002.2,VALID,0,VALID,89.6775,VALID,0,VALID,26.2329,VALID,33,VALID,1.30781,
2011-01-06, 00:46:04,VALID,1002.21,VALID,0,VALID,89.502,VALID,0,VALID,26.2719,VALID,46,VALID,1.07305,
2011-01-06, 00:47:04,VALID,1002.2,VALID,0,VALID,90.4175,VALID,0,VALID,26.2913,VALID,55,VALID,0.361719,
2011-01-06, 00:48:04,VALID,1002.21,VALID,0,VALID,90.9439,VALID,0,VALID,26.2134,VALID,46,VALID,0.551172,
2011-01-06, 00:49:04,VALID,1002.23,VALID,0,VALID,92.0958,VALID,0.100563,VALID,26.155,VALID,45,VALID,0.618359,
2011-01-06, 00:50:04,VALID,1002.26,VALID,0,VALID,93.0495,VALID,0,VALID,26.0791,VALID,45,VALID,0.381641,
2011-01-06, 00:51:04,VALID,1002.24,VALID,0,VALID,93.9802,VALID,0,VALID,25.9602,VALID,33,VALID,0.874219,
2011-01-06, 00:52:04,VALID,1002.2,VALID,0,VALID,94.9109,VALID,0,VALID,25.8434,VALID,31,VALID,0.919922,
2011-01-06, 00:53:04,VALID,1002.2,VALID,0,VALID,95.6204,VALID,0,VALID,25.7655,VALID,26,VALID,0.747656,
2011-01-06, 00:54:04,VALID,1002.17,VALID,0,VALID,95.6051,VALID,0,VALID,25.7285,VALID,32,VALID,0.692578,
2011-01-06, 00:55:04,VALID,1002.14,VALID,0,VALID,95.2313,VALID,0,VALID,25.7674,VALID,20,VALID,0.695313,
2011-01-06, 00:56:04,VALID,1002.19,VALID,0,VALID,95.8569,VALID,0,VALID,25.746,VALID,39,VALID,1.23984,
2011-01-06, 00:57:04,VALID,1002.13,VALID,0,VALID,94.3387,VALID,0,VALID,25.7071,VALID,4,VALID,1.64922,
2011-01-06, 00:58:04,VALID,1002.16,VALID,0,VALID,92.2179,VALID,0.100563,VALID,25.9992,VALID,85,VALID,0.848828,
2011-01-06, 00:59:04,VALID,1002.17,VALID,0,VALID,92.2561,VALID,0,VALID,26.0771,VALID,17,VALID,1.23047,
2011-01-06, 01:00:04,VALID,1002.14,VALID,0,VALID,90.7303,VALID,0,VALID,26.1375,VALID,14,VALID,1.06602,
2011-01-06, 01:01:04,VALID,1002.11,VALID,0,VALID,90.982,VALID,0,VALID,26.192,VALID,27,VALID,0.854688,
2011-01-06, 01:02:04,VALID,1002.07,VALID,0,VALID,90.448,VALID,0.100563,VALID,26.2329,VALID,15,VALID,1.06133,
2011-01-06, 01:03:04,VALID,1002.12,VALID,0,VALID,91.2719,VALID,0.100563,VALID,26.2913,VALID,36,VALID,0.581641,
2011-01-06, 01:04:04,VALID,1002.09,VALID,0,VALID,90.8218,VALID,0,VALID,26.2134,VALID,11,VALID,1.03555,
2011-01-06, 01:05:04,VALID,1002.09,VALID,0,VALID,91.6457,VALID,0.100563,VALID,26.194,VALID,22,VALID,1.03945,
2011-01-06, 01:06:04,VALID,1002.1,VALID,0,VALID,90.9363,VALID,0.100563,VALID,26.3303,VALID,34,VALID,1.07773,
2011-01-06, 01:07:04,VALID,1002.07,VALID,0,VALID,90.2039,VALID,0,VALID,26.2913,VALID,354,VALID,1.40234,
2011-01-06, 01:08:04,VALID,1002.09,VALID,0,VALID,90.776,VALID,0.100563,VALID,26.3303,VALID,32,VALID,0.933203,
2011-01-06, 01:09:04,VALID,1002.08,VALID,0,VALID,91.0049,VALID,0.100563,VALID,26.2329,VALID,22,VALID,1.44805,
2011-01-06, 01:10:04,VALID,1002.08,VALID,0,VALID,91.2338,VALID,0,VALID,26.2719,VALID,29,VALID,0.663672,
2011-01-06, 01:11:04,VALID,1002.1,VALID,0,VALID,91.0583,VALID,0,VALID,26.2913,VALID,30,VALID,0.835547,
2011-01-06, 01:12:04,VALID,1002.08,VALID,0,VALID,91.2948,VALID,0.100563,VALID,26.2719,VALID,36,VALID,0.311328,
2011-01-06, 01:13:04,VALID,1002.09,VALID,0,VALID,91.5008,VALID,0,VALID,26.2134,VALID,22,VALID,0.838672,
2011-01-06, 01:14:04,VALID,1002.11,VALID,0,VALID,91.722,VALID,0.100563,VALID,26.192,VALID,26,VALID,0.213672,
2011-01-06, 01:15:04,VALID,1002.13,VALID,0,VALID,92.2484,VALID,0,VALID,26.194,VALID,27,VALID,0.291797,
2011-01-06, 01:16:04,VALID,1002.13,VALID,0,VALID,91.5847,VALID,0,VALID,26.155,VALID,31,VALID,0.847266,
2011-01-06, 01:17:04,VALID,1002.09,VALID,0,VALID,90.3259,VALID,0,VALID,26.194,VALID,28,VALID,1.65352,
2011-01-06, 01:18:04,VALID,1002.09,VALID,0,VALID,89.7461,VALID,0,VALID,26.3108,VALID,11,VALID,0.641406,
2011-01-06, 01:19:04,VALID,1002.04,VALID,0,VALID,89.2884,VALID,0,VALID,26.3693,VALID,22,VALID,1.1043,
2011-01-06, 01:20:04,VALID,1002.07,VALID,0,VALID,89.2655,VALID,0,VALID,26.3887,VALID,15,VALID,0.991016,
2011-01-06, 01:21:04,VALID,1002.06,VALID,0,VALID,89.7538,VALID,0,VALID,26.4082,VALID,33,VALID,0.598437,
2011-01-06, 01:22:04,VALID,1002.07,VALID,0,VALID,89.7309,VALID,0,VALID,26.3887,VALID,35,VALID,0.389062,
2011-01-06, 01:23:04,VALID,1002.05,VALID,0,VALID,90.0894,VALID,0,VALID,26.3108,VALID,37,VALID,0.521875,
2011-01-06, 01:24:04,VALID,1002.1,VALID,0,VALID,90.7379,VALID,0,VALID,26.2349,VALID,64,VALID,0.68125,
2011-01-06, 01:25:04,VALID,1002.07,VALID,0,VALID,91.9051,VALID,0,VALID,26.0966,VALID,84,VALID,0.344141,
2011-01-06, 01:26:04,VALID,1002.07,VALID,0,VALID,93.1105,VALID,0,VALID,26.0381,VALID,48,VALID,0.645312,
2011-01-06, 01:27:04,VALID,1002.06,VALID,0,VALID,93.3699,VALID,0.100563,VALID,26.0771,VALID,53,VALID,0.612109,
2011-01-06, 01:28:04,VALID,1002.05,VALID,0,VALID,93.4767,VALID,0.100563,VALID,25.9797,VALID,52,VALID,0.15,
2011-01-06, 01:29:04,VALID,1002.04,VALID,0,VALID,94.4532,VALID,0,VALID,25.8823,VALID,46,VALID,0.732422,
2011-01-06, 01:30:04,VALID,1002.02,VALID,0,VALID,95.2466,VALID,0.100563,VALID,25.8239,VALID,20,VALID,0.869531,
2011-01-06, 01:31:04,VALID,1002.01,VALID,0,VALID,96.0247,VALID,0,VALID,25.746,VALID,11,VALID,1.17617,
2011-01-06, 01:32:04,VALID,1002,VALID,0,VALID,96.2383,VALID,0.100563,VALID,25.744,VALID,10,VALID,0.641406,
2011-01-06, 01:33:04,VALID,1001.99,VALID,0,VALID,96.5511,VALID,0,VALID,25.746,VALID,11,VALID,0.889453,
2011-01-06, 01:34:04,VALID,1002.01,VALID,0,VALID,96.9173,VALID,0,VALID,25.7246,VALID,22,VALID,0.909375,
2011-01-06, 01:35:04,VALID,1001.95,VALID,0,VALID,97.1233,VALID,0.100563,VALID,25.7051,VALID,24,VALID,1.2668,
2011-01-06, 01:36:04,VALID,1001.95,VALID,0,VALID,96.8258,VALID,0,VALID,25.785,VALID,25,VALID,0.562109,
2011-01-06, 01:37:04,VALID,1001.93,VALID,0,VALID,96.7266,VALID,0,VALID,25.785,VALID,8,VALID,1.00586,
2011-01-06, 01:38:04,VALID,1001.92,VALID,0,VALID,96.9936,VALID,0,VALID,25.8434,VALID,8,VALID,1.10156,
2011-01-06, 01:39:04,VALID,1001.9,VALID,0,VALID,95.7653,VALID,0,VALID,26.0187,VALID,31,VALID,0.838281,
2011-01-06, 01:40:04,VALID,1001.89,VALID,0,VALID,95.2313,VALID,0,VALID,26.0596,VALID,23,VALID,1.55664,
2011-01-06, 01:41:04,VALID,1001.89,VALID,0,VALID,94.827,VALID,0,VALID,26.157,VALID,14,VALID,0.908984,
2011-01-06, 01:42:04,VALID,1001.84,VALID,0,VALID,94.5981,VALID,0,VALID,26.1375,VALID,358,VALID,0.938281,
2011-01-06, 01:43:04,VALID,1001.84,VALID,0,VALID,94.7125,VALID,0,VALID,26.1765,VALID,357,VALID,0.682422,
2011-01-06, 01:44:04,VALID,1001.84,VALID,0,VALID,94.9872,VALID,0,VALID,26.1765,VALID,11,VALID,1.4418,
2011-01-06, 01:45:05,VALID,1001.82,VALID,0,VALID,94.3235,VALID,0,VALID,26.2759,VALID,2,VALID,1.14531,
2011-01-06, 01:46:05,VALID,1001.83,VALID,0,VALID,93.7437,VALID,0,VALID,26.2933,VALID,26,VALID,1.00117,
2011-01-06, 01:47:05,VALID,1001.83,VALID,0,VALID,94.3616,VALID,0,VALID,26.2329,VALID,22,VALID,1.24375,
2011-01-06, 01:48:05,VALID,1001.8,VALID,0,VALID,94.4227,VALID,0,VALID,26.2154,VALID,3,VALID,0.588672,
2011-01-06, 01:49:05,VALID,1001.82,VALID,0,VALID,94.6973,VALID,0,VALID,26.1765,VALID,6,VALID,1.10664,
2011-01-06, 01:50:05,VALID,1001.82,VALID,0,VALID,95.3686,VALID,0,VALID,26.0596,VALID,24,VALID,1.00664,
2011-01-06, 01:51:05,VALID,1001.81,VALID,0,VALID,95.4297,VALID,0,VALID,26.118,VALID,5,VALID,1.0875,
2011-01-06, 01:52:05,VALID,1001.82,VALID,0,VALID,95.3305,VALID,0,VALID,26.0985,VALID,12,VALID,0.628906,
2011-01-06, 01:53:05,VALID,1001.84,VALID,0,VALID,95.6662,VALID,0,VALID,26.0401,VALID,9,VALID,0.726953,
2011-01-06, 01:54:05,VALID,1001.86,VALID,0,VALID,96.4901,VALID,0,VALID,25.9232,VALID,14,VALID,0.789844,
2011-01-06, 01:55:05,VALID,1001.86,VALID,0,VALID,95.8645,VALID,0,VALID,26.0966,VALID,11,VALID,1.37305,
2011-01-06, 01:56:05,VALID,1001.86,VALID,0,VALID,95.1016,VALID,0,VALID,26.1745,VALID,2,VALID,0.711719,
2011-01-06, 01:57:05,VALID,1001.83,VALID,0,VALID,94.6973,VALID,0,VALID,26.194,VALID,23,VALID,0.426562,
2011-01-06, 01:58:05,VALID,1001.83,VALID,0,VALID,94.5905,VALID,0,VALID,26.2134,VALID,17,VALID,0.959375,
2011-01-06, 01:59:05,VALID,1001.84,VALID,0,VALID,94.1404,VALID,0,VALID,26.2913,VALID,29,VALID,1.29922,
2011-01-06, 02:00:05,VALID,1001.82,VALID,0,VALID,93.7437,VALID,0,VALID,26.3713,VALID,22,VALID,1.10586,
2011-01-06, 02:01:05,VALID,1001.85,VALID,0,VALID,93.408,VALID,0,VALID,26.3303,VALID,86,VALID,0.739453,
2011-01-06, 02:02:05,VALID,1001.83,VALID,0,VALID,94.0794,VALID,0,VALID,26.2134,VALID,97,VALID,0.271094,
2011-01-06, 02:03:05,VALID,1001.85,VALID,0,VALID,95.0787,VALID,0,VALID,26.0966,VALID,97,VALID,0.0832031,
2011-01-06, 02:04:05,VALID,1001.85,VALID,0,VALID,95.7348,VALID,0,VALID,25.9992,VALID,97,VALID,0.189453,
2011-01-06, 02:05:05,VALID,1001.84,VALID,0,VALID,96.4901,VALID,0,VALID,25.9018,VALID,51,VALID,0.192969,
2011-01-06, 02:06:05,VALID,1001.85,VALID,0,VALID,97.1233,VALID,0,VALID,25.8629,VALID,87,VALID,0.453125,
2011-01-06, 02:07:05,VALID,1001.85,VALID,0,VALID,97.1996,VALID,0,VALID,25.9038,VALID,84,VALID,0.237891,
2011-01-06, 02:08:05,VALID,1001.87,VALID,0,VALID,97.2301,VALID,0,VALID,25.8648,VALID,84,VALID,0.285156,
2011-01-06, 02:09:05,VALID,1001.9,VALID,0,VALID,97.4513,VALID,0,VALID,25.8434,VALID,84,VALID,0.208594,
2011-01-06, 02:10:05,VALID,1001.91,VALID,0,VALID,97.7031,VALID,0,VALID,25.7655,VALID,84,VALID,0.565234,
2011-01-06, 02:11:05,VALID,1001.88,VALID,0,VALID,98.3286,VALID,0,VALID,25.8044,VALID,73,VALID,0.262109,
2011-01-06, 02:12:05,VALID,1001.88,VALID,0,VALID,97.4361,VALID,0.100563,VALID,25.7265,VALID,128,VALID,0.944531,
2011-01-06, 02:13:05,VALID,1001.89,VALID,0,VALID,98.5041,VALID,0,VALID,25.5337,VALID,143,VALID,0.513672,
2011-01-06, 02:14:05,VALID,1001.9,VALID,0,VALID,99.3509,VALID,0.100563,VALID,25.4149,VALID,143,VALID,0.382813,
2011-01-06, 02:15:05,VALID,1001.89,VALID,0,VALID,99.473,VALID,0,VALID,25.2397,VALID,162,VALID,0.544922,
2011-01-06, 02:16:05,VALID,1001.92,VALID,0,VALID,99.7629,VALID,0.100563,VALID,25.1229,VALID,170,VALID,0.477344,
2011-01-06, 02:17:05,VALID,1001.93,VALID,0,VALID,100.266,VALID,0,VALID,25.045,VALID,209,VALID,0.520312,
2011-01-06, 02:18:05,VALID,1001.94,VALID,0,VALID,100.961,VALID,0,VALID,24.9282,VALID,209,VALID,0.446875,
2011-01-06, 02:19:05,VALID,1001.95,VALID,0,VALID,103.051,VALID,0,VALID,24.8308,VALID,209,VALID,0.0429688,
2011-01-06, 02:20:05,VALID,1001.95,VALID,0,VALID,104,VALID,0,VALID,24.7743,VALID,209,VALID,0,
2011-01-06, 02:21:05,VALID,1001.91,VALID,0,INVALID,111.321,VALID,0,VALID,24.6945,VALID,209,VALID,0,
2011-01-06, 02:22:05,VALID,1001.96,VALID,0,INVALID,120.498,VALID,0,VALID,24.6361,VALID,209,VALID,0,
2011-01-06, 02:23:05,VALID,1001.94,VALID,0,INVALID,139.387,VALID,0,VALID,24.5777,VALID,209,VALID,0,
2011-01-06, 02:24:05,VALID,1001.94,VALID,0,INVALID,163.624,VALID,0,VALID,24.5601,VALID,209,VALID,0,
2011-01-06, 02:25:05,VALID,1001.95,VALID,0,INVALID,163.655,VALID,0,VALID,24.5017,VALID,209,VALID,0.250781,
2011-01-06, 02:26:05,VALID,1001.88,VALID,0,INVALID,163.678,VALID,0,VALID,24.4414,VALID,209,VALID,0.284766,
2011-01-06, 02:27:05,VALID,1001.9,VALID,0,INVALID,163.693,VALID,0.100563,VALID,24.4043,VALID,209,VALID,0,
2011-01-06, 02:28:05,VALID,1001.88,VALID,0,INVALID,163.685,VALID,0,VALID,24.3441,VALID,209,VALID,0,
2011-01-06, 02:29:05,VALID,1001.88,VALID,0,INVALID,163.678,VALID,0.100563,VALID,24.3033,VALID,209,VALID,0,
2011-01-06, 02:30:05,VALID,1001.9,VALID,0,INVALID,163.693,VALID,0,VALID,24.2449,VALID,209,VALID,0.448828,
2011-01-06, 02:31:05,VALID,1001.87,VALID,0,INVALID,163.701,VALID,0.100563,VALID,24.206,VALID,209,VALID,0.346875,
2011-01-06, 02:32:05,VALID,1001.87,VALID,0,INVALID,163.708,VALID,0,VALID,24.1884,VALID,209,VALID,0.226172,
2011-01-06, 02:33:05,VALID,1001.84,VALID,0,INVALID,163.708,VALID,0.100563,VALID,24.1689,VALID,209,VALID,0.159766,
2011-01-06, 02:34:05,VALID,1001.79,VALID,0,INVALID,163.708,VALID,0,VALID,24.13,VALID,209,VALID,0,
2011-01-06, 02:35:05,VALID,1001.77,VALID,0,INVALID,163.731,VALID,0,VALID,24.1105,VALID,209,VALID,0,
2011-01-06, 02:36:05,VALID,1001.76,VALID,0,INVALID,163.716,VALID,0.100563,VALID,24.1105,VALID,209,VALID,0.103906,
2011-01-06, 02:37:05,VALID,1001.77,VALID,0,INVALID,163.731,VALID,0.100563,VALID,24.0716,VALID,209,VALID,0.267188,
2011-01-06, 02:38:05,VALID,1001.76,VALID,0,INVALID,163.701,VALID,0.100563,VALID,24.0716,VALID,318,VALID,0.527344,
2011-01-06, 02:39:05,VALID,1001.78,VALID,0,INVALID,163.708,VALID,0.100563,VALID,24.0308,VALID,354,VALID,0.879687,
2011-01-06, 02:40:05,VALID,1001.79,VALID,0,INVALID,163.716,VALID,0,VALID,24.0539,VALID,350,VALID,0.897656,
2011-01-06, 02:41:05,VALID,1001.79,VALID,0,INVALID,163.708,VALID,0,VALID,24.0539,VALID,357,VALID,0.721094,
2011-01-06, 02:42:05,VALID,1001.79,VALID,0,INVALID,163.716,VALID,0,VALID,24.0734,VALID,349,VALID,0.819141,
2011-01-06, 02:43:05,VALID,1001.76,VALID,0,INVALID,163.685,VALID,0,VALID,24.0929,VALID,355,VALID,0.767187,
2011-01-06, 02:44:05,VALID,1001.76,VALID,0,INVALID,163.723,VALID,0,VALID,24.1123,VALID,348,VALID,0.195703,
2011-01-06, 02:45:05,VALID,1001.74,VALID,0,INVALID,163.708,VALID,0,VALID,24.1105,VALID,296,VALID,0.425781,
2011-01-06, 02:46:05,VALID,1001.72,VALID,0,INVALID,163.685,VALID,0,VALID,24.13,VALID,302,VALID,0.439063,
2011-01-06, 02:47:05,VALID,1001.73,VALID,0,INVALID,163.708,VALID,0,VALID,24.1513,VALID,311,VALID,0.0675781,
2011-01-06, 02:48:05,VALID,1001.73,VALID,0,INVALID,163.701,VALID,0,VALID,24.1689,VALID,312,VALID,0.0242187,
2011-01-06, 02:49:05,VALID,1001.73,VALID,0,INVALID,163.708,VALID,0,VALID,24.1902,VALID,312,VALID,0.187109,
2011-01-06, 02:50:05,VALID,1001.74,VALID,0,INVALID,163.701,VALID,0,VALID,24.1707,VALID,312,VALID,0.122266,
2011-01-06, 02:51:05,VALID,1001.77,VALID,0,INVALID,163.723,VALID,0,VALID,24.1494,VALID,312,VALID,0.315625,
2011-01-06, 02:52:05,VALID,1001.75,VALID,0,INVALID,163.67,VALID,0,VALID,24.1707,VALID,312,VALID,0,
2011-01-06, 02:53:05,VALID,1001.74,VALID,0,INVALID,163.716,VALID,0,VALID,24.13,VALID,312,VALID,0.415234,
2011-01-06, 02:54:05,VALID,1001.72,VALID,0,INVALID,163.723,VALID,0,VALID,24.1707,VALID,33,VALID,0.471484,
2011-01-06, 02:55:05,VALID,1001.73,VALID,0,INVALID,163.716,VALID,0,VALID,24.1884,VALID,28,VALID,0.346484,
2011-01-06, 02:56:05,VALID,1001.73,VALID,0,INVALID,163.685,VALID,0,VALID,24.2273,VALID,28,VALID,0.522266,
2011-01-06, 02:57:05,VALID,1001.71,VALID,0,INVALID,163.708,VALID,0,VALID,24.2875,VALID,20,VALID,0.798047,
2011-01-06, 02:58:05,VALID,1001.72,VALID,0,INVALID,163.685,VALID,0,VALID,24.3246,VALID,5,VALID,0.455078,
2011-01-06, 02:59:05,VALID,1001.71,VALID,0,INVALID,163.701,VALID,0,VALID,24.3654,VALID,5,VALID,0.308203,
2011-01-06, 03:00:05,VALID,1001.72,VALID,0,INVALID,163.685,VALID,0,VALID,24.3654,VALID,5,VALID,0.129297,
2011-01-06, 03:01:05,VALID,1001.68,VALID,0,INVALID,163.701,VALID,0,VALID,24.3246,VALID,5,VALID,0.000390625,
2011-01-06, 03:02:05,VALID,1001.7,VALID,0,INVALID,163.693,VALID,0,VALID,24.3459,VALID,5,VALID,0,
2011-01-06, 03:03:05,VALID,1001.68,VALID,0,INVALID,163.701,VALID,0,VALID,24.3441,VALID,5,VALID,0.0464844,
2011-01-06, 03:04:05,VALID,1001.69,VALID,0,INVALID,163.701,VALID,0,VALID,24.3246,VALID,5,VALID,0.473047,
2011-01-06, 03:05:05,VALID,1001.69,VALID,0,INVALID,163.716,VALID,0,VALID,24.3246,VALID,1,VALID,0.516797,
2011-01-06, 03:06:05,VALID,1001.67,VALID,0,INVALID,163.693,VALID,0,VALID,24.3441,VALID,1,VALID,0.421094,
2011-01-06, 03:07:05,VALID,1001.66,VALID,0,INVALID,163.693,VALID,0,VALID,24.3441,VALID,2,VALID,0.567187,
2011-01-06, 03:08:05,VALID,1001.61,VALID,0,INVALID,163.693,VALID,0,VALID,24.3441,VALID,320,VALID,0.155078,
2011-01-06, 03:09:05,VALID,1001.59,VALID,0,INVALID,163.708,VALID,0,VALID,24.383,VALID,320,VALID,0,
2011-01-06, 03:10:05,VALID,1001.61,VALID,0,INVALID,163.701,VALID,0,VALID,24.383,VALID,320,VALID,0.0984375,
2011-01-06, 03:11:05,VALID,1001.6,VALID,0,INVALID,163.685,VALID,0,VALID,24.4238,VALID,320,VALID,0.0710938,
2011-01-06, 03:12:05,VALID,1001.54,VALID,0,INVALID,163.693,VALID,0,VALID,24.4238,VALID,320,VALID,0,
2011-01-06, 03:13:05,VALID,1001.52,VALID,0,INVALID,163.685,VALID,0,VALID,24.422,VALID,320,VALID,0.253906,
2011-01-06, 03:14:05,VALID,1001.5,VALID,0,INVALID,163.67,VALID,0,VALID,24.4628,VALID,15,VALID,0.481641,
2011-01-06, 03:15:05,VALID,1001.52,VALID,0,INVALID,163.662,VALID,0,VALID,24.5017,VALID,18,VALID,0.920703,
2011-01-06, 03:16:05,VALID,1001.49,VALID,0,INVALID,163.685,VALID,0,VALID,24.6166,VALID,360,VALID,1.32422,
2011-01-06, 03:17:05,VALID,1001.44,VALID,0,INVALID,163.678,VALID,0,VALID,24.8503,VALID,27,VALID,0.807813,
2011-01-06, 03:18:05,VALID,1001.43,VALID,0,INVALID,163.662,VALID,0,VALID,25.0274,VALID,11,VALID,0.512891,
2011-01-06, 03:19:05,VALID,1001.4,VALID,0,INVALID,163.647,VALID,0,VALID,25.1034,VALID,9,VALID,0.667188,
2011-01-06, 03:20:05,VALID,1001.42,VALID,0,INVALID,163.647,VALID,0,VALID,25.1832,VALID,10,VALID,0.211719,
2011-01-06, 03:21:05,VALID,1001.37,VALID,0,INVALID,163.632,VALID,0,VALID,25.2027,VALID,36,VALID,0.355078,
2011-01-06, 03:22:05,VALID,1001.38,VALID,0,INVALID,163.617,VALID,0,VALID,25.2221,VALID,8,VALID,0.613672,
2011-01-06, 03:23:05,VALID,1001.38,VALID,0,INVALID,163.594,VALID,0,VALID,25.2202,VALID,13,VALID,0.510156,
2011-01-06, 03:24:05,VALID,1001.36,VALID,0,INVALID,163.617,VALID,0,VALID,25.2611,VALID,25,VALID,0.979297,
2011-01-06, 03:25:05,VALID,1001.34,VALID,0,INVALID,163.594,VALID,0,VALID,25.2592,VALID,48,VALID,0.527344,
2011-01-06, 03:26:05,VALID,1001.37,VALID,0,INVALID,159.421,VALID,0,VALID,25.2611,VALID,24,VALID,0.796484,
2011-01-06, 03:27:05,VALID,1001.35,VALID,0,INVALID,155.507,VALID,0,VALID,25.2416,VALID,46,VALID,0.352734,
2011-01-06, 03:28:05,VALID,1001.38,VALID,0,INVALID,156.499,VALID,0,VALID,25.2202,VALID,38,VALID,0.322266,
2011-01-06, 03:29:05,VALID,1001.38,VALID,0,INVALID,157.811,VALID,0,VALID,25.1832,VALID,25,VALID,0.663672,
2011-01-06, 03:30:05,VALID,1001.38,VALID,0,INVALID,160.588,VALID,0,VALID,25.1832,VALID,33,VALID,0.570703,
2011-01-06, 03:31:05,VALID,1001.37,VALID,0,INVALID,161.603,VALID,0,VALID,25.1813,VALID,27,VALID,0.939844,
2011-01-06, 03:32:05,VALID,1001.37,VALID,0,INVALID,157.201,VALID,0,VALID,25.1813,VALID,28,VALID,0.282422,
2011-01-06, 03:33:05,VALID,1001.36,VALID,0,INVALID,154.607,VALID,0,VALID,25.2027,VALID,22,VALID,0.471484,
2011-01-06, 03:34:05,VALID,1001.39,VALID,0,INVALID,155.095,VALID,0,VALID,25.1618,VALID,16,VALID,0.178906,
2011-01-06, 03:35:05,VALID,1001.4,VALID,0,INVALID,153.768,VALID,0,VALID,25.1618,VALID,17,VALID,0.579687,
2011-01-06, 03:36:05,VALID,1001.4,VALID,0,INVALID,156.049,VALID,0,VALID,25.1248,VALID,22,VALID,0.623828,
2011-01-06, 03:37:05,VALID,1001.42,VALID,0,INVALID,162.228,VALID,0,VALID,25.1248,VALID,47,VALID,0.834766,
2011-01-06, 03:38:05,VALID,1001.42,VALID,0,INVALID,163.533,VALID,0,VALID,25.1053,VALID,43,VALID,0.593359,
2011-01-06, 03:39:05,VALID,1001.43,VALID,0,INVALID,163.609,VALID,0,VALID,25.0274,VALID,28,VALID,0.757813,
2011-01-06, 03:40:05,VALID,1001.43,VALID,0,INVALID,163.647,VALID,0,VALID,24.9476,VALID,1,VALID,0.646875,
2011-01-06, 03:41:05,VALID,1001.43,VALID,0,INVALID,163.655,VALID,0,VALID,24.9087,VALID,1,VALID,0.960938,
2011-01-06, 03:42:05,VALID,1001.41,VALID,0,INVALID,163.67,VALID,0,VALID,24.9495,VALID,3,VALID,1.01563,
2011-01-06, 03:43:05,VALID,1001.41,VALID,0,INVALID,163.67,VALID,0,VALID,25.0079,VALID,352,VALID,1.17109,
2011-01-06, 03:44:05,VALID,1001.42,VALID,0,INVALID,163.639,VALID,0,VALID,25.045,VALID,357,VALID,1.2832,